Weather History for EGLL - February, 2013

Change the Weather History Date:

Saturday, February 2, 2013

  Actual Average Record
Temperature  
Mean Temperature 36 °F -  
Max Temperature 42 °F 46 °F 57 °F (2004)
Min Temperature 31 °F 35 °F 22 °F (2015)
Degree Days  
Heating Degree Days 28    
Moisture  
Dew Point 29 °F    
Average Humidity 68    
Maximum Humidity 87    
Minimum Humidity 46    
Precipitation  
Precipitation 0.00 in - - ()
Sea Level Pressure  
Sea Level Pressure 30.02 in    
Wind  
Wind Speed 9 mph ()    
Max Wind Speed 14 mph    
Max Gust Speed 22 mph    
Visibility 8.5 miles    
Events Rain    
Averages and records for this station are not official NWS values.
T = Trace of Precipitation, MM = Missing Value Source: Averaged Metar Reports

Daily Weather History Graph

Daily Weather History Graph

Search for Another Location

Airport or City:

Trip Planner

Search our weather history database for the weather conditions in past years. The results will help you decide how hot, cold, wet, or windy it might be!

Date:

Astronomy

Feb. 02, 2013 Rise Set
Actual Time 7:38 AM GMT 4:53 PM GMT
Civil Twilight 7:02 AM GMT 5:29 PM GMT
Nautical Twilight 6:22 AM GMT 6:09 PM GMT
Astronomical Twilight 5:43 AM GMT 6:48 PM GMT
Moon No Moon Rise 9:47 AM GMT (2/2)
Length of Visible Light 10h 27m
Length of Day
9h 15m
Waning Gibbous, 62% of the Moon is Illuminated
Feb 2
Waning Gibbous
Feb 3
Last Quarter
Feb 10
New
Feb 17
First Quarter
Feb 25
Full

Hourly Weather History & Observations

Time (GMT) Temp. Windchill Dew Point Humidity Pressure Visibility Wind Dir Wind Speed Gust Speed Precip Events Conditions
12:20 AM 41.0 °F 36.4 °F 37.4 °F 87% 29.62 in 6.2 mi NNW 6.9 mph - N/A   Scattered Clouds
12:50 AM 41.0 °F 35.2 °F 35.6 °F 81% 29.65 in 6.2 mi North 9.2 mph - N/A   Scattered Clouds
1:20 AM 41.0 °F 35.8 °F 35.6 °F 81% 29.65 in 6.2 mi NNW 8.1 mph - N/A   Mostly Cloudy
1:50 AM 41.0 °F 34.7 °F 35.6 °F 81% 29.68 in 6.2 mi North 10.4 mph - N/A   Scattered Clouds
2:20 AM 41.0 °F 35.2 °F 35.6 °F 81% 29.68 in 6.2 mi North 9.2 mph - N/A   Mostly Cloudy
2:50 AM 41 °F - 35 °F 71% 29.72 in 17 mi NNW 11.5 mph - - Rain Rain
2:50 AM 41.0 °F 35.2 °F 33.8 °F 76% 29.71 in 6.2 mi North 9.2 mph - N/A   Scattered Clouds
3:20 AM 41.0 °F 34.3 °F 33.8 °F 76% 29.74 in 6.2 mi NNW 11.5 mph - N/A   Scattered Clouds
3:50 AM 41.0 °F 33.9 °F 32.0 °F 70% 29.74 in 6.2 mi NNW 12.7 mph - N/A   Scattered Clouds
4:20 AM 39.2 °F 32.5 °F 32.0 °F 75% 29.77 in 6.2 mi NNW 10.4 mph - N/A   Scattered Clouds
4:50 AM 39.2 °F 32.5 °F 32.0 °F 75% 29.80 in 6.2 mi NNW 10.4 mph - N/A   Scattered Clouds
5:20 AM 39.2 °F 32.5 °F 32.0 °F 75% 29.83 in 6.2 mi NNW 10.4 mph - N/A   Scattered Clouds
5:50 AM 38 °F - 32 °F 71% 29.85 in 19 mi NNW 13.8 mph - -  
5:50 AM 37.4 °F 30.3 °F 32.0 °F 81% 29.83 in 6.2 mi NNW 10.4 mph - N/A   Scattered Clouds
6:20 AM 37.4 °F 30.3 °F 32.0 °F 81% 29.86 in 6.2 mi NNW 10.4 mph - N/A   Partly Cloudy
6:50 AM 37.4 °F 31.4 °F 32.0 °F 81% 29.89 in 6.2 mi NNW 8.1 mph - N/A   Partly Cloudy
7:20 AM 37.4 °F 31.4 °F 30.2 °F 75% 29.89 in 6.2 mi NNW 8.1 mph - N/A   Partly Cloudy
7:50 AM 37.4 °F 30.3 °F 30.2 °F 75% 29.92 in - NNW 10.4 mph - N/A   Clear
8:20 AM 37.4 °F 29.8 °F 30.2 °F 75% 29.95 in - NNW 11.5 mph - N/A   Clear
8:50 AM 37 °F - 31 °F 71% 29.98 in 19 mi NNW 12.7 mph - -  
8:50 AM 37.4 °F 29.8 °F 30.2 °F 75% 29.98 in - NNW 11.5 mph - N/A   Clear
9:20 AM 37.4 °F 30.3 °F 30.2 °F 75% 29.98 in - NNW 10.4 mph - N/A   Clear
9:50 AM 39.2 °F 32.0 °F 30.2 °F 70% 30.01 in - NNW 11.5 mph - N/A   Clear
10:20 AM 39.2 °F 32.0 °F 30.2 °F 70% 30.01 in 6.2 mi NNW 11.5 mph - N/A   Partly Cloudy
10:50 AM 39.2 °F 32.5 °F 30.2 °F 70% 30.04 in 6.2 mi NNW 10.4 mph - N/A   Scattered Clouds
11:20 AM 41.0 °F 33.9 °F 30.2 °F 65% 30.06 in 6.2 mi NNW 12.7 mph - N/A   Scattered Clouds
11:50 AM 41 °F - 30 °F 55% 30.07 in 19 mi NNW 11.5 mph - -   Scattered Clouds
11:50 AM 41.0 °F 34.7 °F 30.2 °F 65% 30.06 in 6.2 mi NNW 10.4 mph - N/A   Scattered Clouds
12:20 PM 41.0 °F 34.7 °F 30.2 °F 65% 30.06 in 6.2 mi NNW 10.4 mph - N/A   Mostly Cloudy
12:50 PM 42.8 °F 36.2 °F 30.2 °F 61% 30.09 in 6.2 mi NNW 12.7 mph - N/A   Scattered Clouds
1:20 PM 41.0 °F 35.2 °F 28.4 °F 61% 30.09 in 6.2 mi North 9.2 mph - N/A   Mostly Cloudy
1:50 PM 41.0 °F 33.9 °F 28.4 °F 61% 30.09 in 6.2 mi NNW 12.7 mph - N/A   Scattered Clouds
2:20 PM 41.0 °F 34.7 °F 28.4 °F 61% 30.12 in 6.2 mi NNW 10.4 mph - N/A   Scattered Clouds
2:50 PM 41 °F - 27 °F 46% 30.13 in 19 mi NNW 12.7 mph - -   Partly Cloudy
2:50 PM 41.0 °F 34.7 °F 28.4 °F 61% 30.12 in 6.2 mi NNW 10.4 mph 21.9 mph N/A   Scattered Clouds
3:20 PM 42.8 °F 36.2 °F 28.4 °F 57% 30.12 in 6.2 mi NW 12.7 mph - N/A   Scattered Clouds
3:50 PM 41.0 °F 34.3 °F 26.6 °F 57% 30.15 in 6.2 mi NNW 11.5 mph - N/A   Mostly Cloudy
4:20 PM 41.0 °F 34.3 °F 26.6 °F 57% 30.15 in 6.2 mi NW 11.5 mph - N/A   Mostly Cloudy
4:50 PM 41.0 °F 35.2 °F 26.6 °F 57% 30.18 in 6.2 mi NW 9.2 mph - N/A   Mostly Cloudy
5:20 PM 41.0 °F 35.8 °F 26.6 °F 57% 30.18 in 6.2 mi NW 8.1 mph - N/A   Mostly Cloudy
5:50 PM 39 °F - 27 °F 51% 30.21 in 15 mi NW 5.8 mph - -   Mostly Cloudy
5:50 PM 39.2 °F 35.0 °F 26.6 °F 61% 30.18 in 6.2 mi NW 5.8 mph - N/A   Mostly Cloudy
6:20 PM 39.2 °F 35.9 °F 26.6 °F 61% 30.21 in 6.2 mi NW 4.6 mph - N/A   Mostly Cloudy
6:50 PM 37.4 °F 33.8 °F 26.6 °F 65% 30.21 in 6.2 mi NW 4.6 mph - N/A   Partly Cloudy
7:20 PM 37.4 °F 33.8 °F 26.6 °F 65% 30.24 in 6.2 mi NW 4.6 mph - N/A   Partly Cloudy
7:50 PM 37.4 °F 33.8 °F 26.6 °F 65% 30.24 in - NW 4.6 mph - N/A   Clear
8:20 PM 37.4 °F 33.8 °F 26.6 °F 65% 30.21 in - NW 4.6 mph - N/A   Clear
8:50 PM 35 °F - 26 °F 60% 30.25 in 18 mi WNW 5.8 mph - -  
8:50 PM 37.4 °F 32.1 °F 24.8 °F 60% 30.24 in - WNW 6.9 mph - N/A   Clear
9:20 PM 35.6 °F 31.7 °F 24.8 °F 65% 30.24 in - NW 4.6 mph - N/A   Clear
9:50 PM 35.6 °F 30.7 °F 24.8 °F 65% 30.24 in - WNW 5.8 mph - N/A   Clear
10:20 PM 35.6 °F 30.7 °F 24.8 °F 65% 30.24 in - WNW 5.8 mph - N/A   Clear
10:50 PM 33.8 °F 28.6 °F 24.8 °F 70% 30.24 in - West 5.8 mph - N/A   Clear
11:20 PM 32.0 °F 25.6 °F 24.8 °F 75% 30.24 in - WNW 6.9 mph - N/A   Clear
11:50 PM 31 °F - 24 °F 65% 30.27 in 19 mi West 4.6 mph - -  
11:50 PM 32.0 °F 28.7 °F 24.8 °F 75% 30.24 in - West 3.5 mph - N/A   Clear